This demonstration page uses our WeatherBlox Daily Observations layout. Learn more.

Left ArrowRight Arrow

40.92945, -100.16068

Hourly Observations for February 27, 2021

Temp ( °F °C ) Dew Point ( °F °C ) Humidity (%) Winds ( mph kmh ) Pressure ( in mb ) Visibility ( mi km ) Precip ( " mm )
12:15 am 00:15 Clear 31 -0.3 21 -6.2 65 65 WSW 5 7 29.9 1013 10 16.0934 N/A
12:35 am 00:35 Clear 31 -0.8 21 -6.2 67 67 WSW 5 7 29.9 1013 10 16.0934 N/A
12:55 am 00:55 Clear 31 -0.6 23 -4.9 73 73 NW 6 9 29.92 1013 10 16.0934 N/A
1:15 am 01:15 Clear 32 undefined 23 -5.2 68 68 N N/A 29.92 1013 10 16.0934 N/A
1:35 am 01:35 Clear 31 -0.3 25 -3.7 78 78 N N/A 29.92 1013 10 16.0934 N/A
1:55 am 01:55 Clear 31 -0.6 25 -3.7 80 80 N N/A 29.93 1014 10 16.0934 N/A
2:15 am 02:15 Clear 30 -0.9 24 -4.2 79 79 N 5 7 29.93 1013 10 16.0934 N/A
2:35 am 02:35 Clear 29 -1.6 24 -4.5 81 81 N N/A 29.93 1014 10 16.0934 N/A
2:55 am 02:55 Clear 30 -1.3 25 -3.8 83 83 N 3 6 29.92 1013 10 16.0934 N/A
3:15 am 03:15 Clear 30 -1.1 26 -3.6 83 83 N N/A 29.9 1012 10 16.0934 N/A
3:35 am 03:35 Clear 29 -1.5 24 -4.2 82 82 NNE 3 6 29.9 1013 10 16.0934 N/A
3:55 am 03:55 Clear 30 -1.3 24 -4.4 80 80 N N/A 29.89 1012 10 16.0934 N/A
4:15 am 04:15 Clear 28 -2.1 25 -4.1 86 86 N N/A 29.91 1013 10 16.0934 N/A
4:35 am 04:35 Clear 26 -3.3 23 -4.8 90 90 N N/A 29.92 1013 10 16.0934 N/A
4:55 am 04:55 Clear 27 -2.7 24 -4.4 88 88 N N/A 29.91 1013 10 16.0934 N/A
5:15 am 05:15 Clear 26 -3.3 23 -5.1 88 88 N N/A 29.92 1013 10 16.0934 N/A
5:35 am 05:35 Clear 28 -2.5 25 -4 90 90 N N/A 29.91 1013 10 16.0934 N/A
5:55 am 05:55 Clear 27 -2.7 24 -4.4 88 88 N N/A 29.91 1013 10 16.0934 N/A
6:15 am 06:15 Clear 27 -2.7 24 -4.6 87 87 N N/A 29.91 1013 10 16.0934 N/A
6:35 am 06:35 Clear 26 -3.2 23 -5 88 88 N N/A 29.93 1013 10 16.0934 N/A
6:55 am 06:55 Clear 27 -2.9 24 -4.5 89 89 N N/A 29.93 1013 10 16.0934 N/A
7:15 am 07:15 Clear 26 -3.1 24 -4.3 92 92 N 5 7 29.92 1013 10 16.0934 N/A
7:35 am 07:35 Sunny 27 -3 24 -4.5 90 90 N 3 6 29.91 1013 10 16.0934 N/A
7:55 am 07:55 Sunny 27 -2.7 22 -5.4 82 82 N N/A 29.9 1013 10 16.0934 N/A
8:15 am 08:15 Sunny 28 -2.2 24 -4.7 83 83 N N/A 29.91 1013 10 16.0934 N/A
8:35 am 08:35 Sunny 29 -1.5 24 -4.3 81 81 N N/A 29.89 1012 10 16.0934 N/A
8:55 am 08:55 Sunny 32 -0.1 24 -4.4 73 73 NNE 3 6 29.88 1012 10 16.0934 N/A
9:15 am 09:15 Sunny 34 1 25 -3.8 71 71 E 6 9 29.86 1011 10 16.0934 N/A
9:35 am 09:35 Sunny 37 2.8 25 -4 61 61 E 10 17 29.83 1010 10 16.0934 N/A
9:55 am 09:55 Sunny 38 3.1 26 -3.2 64 64 E 12 19 29.81 1009 10 16.0934 N/A
10:15 am 10:15 Sunny 40 4.2 28 -2.5 62 62 ENE 14 22 29.78 1008 10 16.0934 N/A
10:35 am 10:35 Sunny 43 6.1 24 -4.6 47 47 E 17 28 29.74 1007 10 16.0934 N/A
10:50 am 10:50 Sunny 45 7.1 26 -3.6 47 47 E 17 28 29.72 1006 10 16.0934 N/A
11:15 am 11:15 Sunny 47 8.4 26 -3.3 44 44 E 20 31 29.69 1005 10 16.0934 N/A
11:35 am 11:35 Sunny 47 8.6 27 -2.7 45 45 E 21 33 29.67 1005 10 16.0934 N/A
11:55 am 11:55 Mostly Cloudy 48 9 29 -1.9 47 47 E 23 37 29.67 1005 10 16.0934 N/A
12:15 pm 12:15 Partly Cloudy 49 9.5 32 -0.2 51 51 E 20 31 29.65 1004 10 16.0934 N/A
12:35 pm 12:35 Sunny 49 9.6 35 1.6 58 58 ESE 22 35 29.63 1004 10 16.0934 N/A
12:55 pm 12:55 Mostly Cloudy 48 9 36 2.1 62 62 SE 20 31 29.63 1003 10 16.0934 N/A
1:15 pm 13:15 Cloudy 47 8.1 37 2.6 69 69 ESE 16 26 29.63 1003 10 16.0934 N/A
1:35 pm 13:35 Cloudy 46 7.6 38 3.1 73 73 S 20 31 29.63 1003 10 16.0934 N/A
1:55 pm 13:55 Cloudy 43 6.3 37 2.5 77 77 SSE 21 33 29.65 1004 10 16.0934 N/A
2:15 pm 14:15 Mostly Cloudy 42 5.4 35 1.8 78 78 SSE 22 35 29.63 1004 10 16.0934 N/A
2:35 pm 14:35 Mostly Cloudy 41 4.9 35 1.6 79 79 SE 16 26 29.64 1004 10 16.0934 N/A
2:55 pm 14:55 Partly Cloudy 42 5.8 36 2 77 77 S 15 24 29.64 1004 10 16.0934 N/A
3:15 pm 15:15 Sunny 43 6.2 36 2.4 77 77 S 15 24 29.66 1004 10 16.0934 N/A
3:35 pm 15:35 Sunny 43 6 37 2.5 78 78 S 12 19 29.66 1004 10 16.0934 N/A
3:55 pm 15:55 Sunny 44 6.5 37 2.6 76 76 S 8 13 29.66 1005 10 16.0934 N/A
4:15 pm 16:15 Sunny 45 7 37 2.7 74 74 SSW 7 11 29.66 1004 10 16.0934 N/A
4:35 pm 16:35 Sunny 45 7.1 37 2.5 73 73 S 6 9 29.66 1004 10 16.0934 N/A
4:55 pm 16:55 Sunny 44 6.8 36 2.3 73 73 SSE 5 7 29.66 1004 10 16.0934 N/A
5:15 pm 17:15 Sunny 44 6.9 36 2.3 73 73 N N/A 29.66 1004 10 16.0934 N/A
5:35 pm 17:35 Sunny 45 7 36 2.4 73 73 N N/A 29.66 1004 10 16.0934 N/A
5:55 pm 17:55 Sunny 44 6.9 36 2.3 73 73 N N/A 29.66 1004 10 16.0934 N/A
6:15 pm 18:15 Sunny 43 6.1 37 2.8 80 80 ENE 7 11 29.68 1005 10 16.0934 N/A
6:35 pm 18:35 Clear 41 5 37 2.5 84 84 N N/A 29.71 1006 10 16.0934 N/A
6:55 pm 18:55 Clear 39 3.9 36 2.1 88 88 SE 7 11 29.75 1007 10 16.0934 N/A
7:15 pm 19:15 Clear 38 3.6 36 2 89 89 ESE 5 7 29.77 1008 10 16.0934 N/A
7:35 pm 19:35 Clear 38 3.1 35 1.8 91 91 N N/A 29.8 1009 10 16.0934 N/A
7:55 pm 19:55 Mostly Cloudy 36 2.3 35 1.4 94 94 N N/A 29.81 1010 7 11.26538 N/A
8:15 pm 20:15 Mostly Cloudy 34 1.3 33 0.4 94 94 WNW 3 6 29.83 1010 7 11.26538 N/A
8:35 pm 20:35 Partly Cloudy 33 0.6 32 undefined 96 96 NW 8 13 29.83 1010 7 11.26538 N/A
8:55 pm 20:55 Partly Cloudy 34 1.2 33 0.5 95 95 N 3 6 29.86 1011 7 11.26538 N/A
9:15 pm 21:15 Partly Cloudy 36 2.2 29 -1.5 77 77 NW 16 26 29.87 1012 10 16.0934 N/A
9:35 pm 21:35 Clear 36 2.2 28 -2 74 74 NW 16 26 29.89 1012 10 16.0934 N/A
9:55 pm 21:55 Clear 34 1.1 28 -2.1 79 79 NNW 12 19 29.91 1013 10 16.0934 N/A
10:15 pm 22:15 Clear 34 1 28 -2.1 80 80 NNW 9 15 29.91 1013 10 16.0934 N/A
10:35 pm 22:35 Clear 32 0.1 28 -2.4 83 83 WNW 7 11 29.94 1014 10 16.0934 N/A
10:55 pm 22:55 Clear 32 undefined 28 -2.5 83 83 NW 8 13 29.95 1014 10 16.0934 N/A
11:15 pm 23:15 Clear 31 -0.5 27 -2.6 86 86 WNW 7 11 29.96 1015 10 16.0934 N/A
11:35 pm 23:35 Clear 30 -1 27 -2.6 89 89 WNW 7 11 29.97 1015 10 16.0934 N/A
11:55 pm 23:55 Clear 31 -0.7 28 -2.5 88 88 WNW 9 15 29.96 1015 10 16.0934 N/A

Powered by AerisWeather